Time,TemperatureF,DewpointF,PressureIn,WindDirection,WindDirectionDegrees,WindSpeedMPH,WindSpeedGustMPH,Humidity,HourlyPrecipIn,Conditions,Clouds,dailyrainin,SoftwareType,DateUTC
2017-03-23 00:04:00,37.5,22.4,30.39,NNW,333,0.0,0.0,54,0.00,,,0.00,WeatherCatV2.10B1306,2017-03-23 04:04:00,
2017-03-23 00:09:00,37.2,22.5,30.39,NNW,333,0.0,0.0,55,0.00,,,0.00,WeatherCatV2.10B1306,2017-03-23 04:09:00,
2017-03-23 00:14:00,37.0,22.8,30.39,NNW,333,0.0,0.0,56,0.00,,,0.00,WeatherCatV2.10B1306,2017-03-23 04:14:00,
2017-03-23 00:19:00,36.8,23.0,30.39,NNW,333,0.0,0.0,57,0.00,,,0.00,WeatherCatV2.10B1306,2017-03-23 04:19:00,
2017-03-23 00:24:00,36.5,23.1,30.39,NNW,333,0.0,0.0,58,0.00,,,0.00,WeatherCatV2.10B1306,2017-03-23 04:24:00,
2017-03-23 00:29:00,36.2,22.9,30.40,NNW,333,0.0,0.0,58,0.00,,,0.00,WeatherCatV2.10B1306,2017-03-23 04:29:00,
2017-03-23 00:34:00,36.0,23.1,30.40,NNW,333,0.0,0.0,59,0.00,,,0.00,WeatherCatV2.10B1306,2017-03-23 04:34:00,
2017-03-23 00:39:00,35.9,23.4,30.40,NNW,333,0.0,0.0,60,0.00,,,0.00,WeatherCatV2.10B1306,2017-03-23 04:39:00,
2017-03-23 00:44:00,35.6,23.5,30.41,NNW,333,0.0,0.0,61,0.00,,,0.00,WeatherCatV2.10B1306,2017-03-23 04:44:00,
2017-03-23 00:49:00,35.5,23.4,30.41,NNW,333,0.0,0.0,61,0.00,,,0.00,WeatherCatV2.10B1306,2017-03-23 04:49:00,
2017-03-23 00:54:00,35.2,23.5,30.41,NNW,333,0.0,0.0,62,0.00,,,0.00,WeatherCatV2.10B1306,2017-03-23 04:54:00,
2017-03-23 00:59:00,35.0,23.7,30.41,NNW,333,0.0,0.0,63,0.00,,,0.00,WeatherCatV2.10B1306,2017-03-23 04:59:00,
2017-03-23 01:04:00,34.7,23.8,30.41,NNW,333,0.0,0.0,64,0.00,,,0.00,WeatherCatV2.10B1306,2017-03-23 05:04:00,
2017-03-23 01:09:00,34.6,24.1,30.41,NNW,333,0.0,0.0,65,0.00,,,0.00,WeatherCatV2.10B1306,2017-03-23 05:09:00,
2017-03-23 01:14:00,34.4,23.9,30.41,NNW,333,0.0,0.0,65,0.00,,,0.00,WeatherCatV2.10B1306,2017-03-23 05:14:00,
2017-03-23 01:19:00,34.1,23.6,30.41,NNW,333,0.0,0.0,65,0.00,,,0.00,WeatherCatV2.10B1306,2017-03-23 05:19:00,
2017-03-23 01:24:00,34.0,23.9,30.41,NNW,333,0.0,0.0,66,0.00,,,0.00,WeatherCatV2.10B1306,2017-03-23 05:24:00,
2017-03-23 01:29:00,33.8,24.0,30.41,NNW,333,0.0,0.0,67,0.00,,,0.00,WeatherCatV2.10B1306,2017-03-23 05:29:00,
2017-03-23 01:34:00,33.7,24.3,30.41,NNW,333,0.0,0.0,68,0.00,,,0.00,WeatherCatV2.10B1306,2017-03-23 05:34:00,
2017-03-23 01:39:00,33.4,24.0,30.41,NNW,333,0.0,0.0,68,0.00,,,0.00,WeatherCatV2.10B1306,2017-03-23 05:39:00,
2017-03-23 01:44:00,33.2,23.8,30.41,NNW,333,0.0,0.0,68,0.00,,,0.00,WeatherCatV2.10B1306,2017-03-23 05:44:00,
2017-03-23 01:49:00,33.1,24.0,30.41,NNW,333,0.0,0.0,69,0.00,,,0.00,WeatherCatV2.10B1306,2017-03-23 05:49:00,
2017-03-23 01:54:00,32.9,23.5,30.41,NNW,333,0.0,0.0,68,0.00,,,0.00,WeatherCatV2.10B1306,2017-03-23 05:54:00,
2017-03-23 01:59:00,32.8,23.4,30.41,NNW,333,0.0,0.0,68,0.00,,,0.00,WeatherCatV2.10B1306,2017-03-23 05:59:00,
2017-03-23 02:04:00,32.7,23.3,30.41,NNW,333,0.0,0.0,68,0.00,,,0.00,WeatherCatV2.10B1306,2017-03-23 06:04:00,
2017-03-23 02:09:00,32.5,23.5,30.41,NNW,333,0.0,0.0,69,0.00,,,0.00,WeatherCatV2.10B1306,2017-03-23 06:09:00,
2017-03-23 02:11:00,32.5,23.5,30.41,NNW,333,0.0,0.0,69,0.00,,,0.00,WeatherCatV2.10B1306,2017-03-23 06:11:00,
2017-03-23 02:16:00,32.5,23.5,30.42,NNW,333,0.0,0.0,69,0.00,,,0.00,WeatherCatV2.10B1306,2017-03-23 06:16:00,
2017-03-23 02:26:00,32.4,23.7,30.42,NNW,333,0.0,0.0,70,0.00,,,0.00,WeatherCatV2.10B1306,2017-03-23 06:26:00,
2017-03-23 02:31:00,32.4,23.7,30.42,NNW,333,0.0,0.0,70,0.00,,,0.00,WeatherCatV2.10B1306,2017-03-23 06:31:00,
2017-03-23 02:36:00,32.4,24.1,30.42,NNW,333,0.0,0.0,71,0.00,,,0.00,WeatherCatV2.10B1306,2017-03-23 06:36:00,
2017-03-23 02:41:00,32.4,24.1,30.42,NNW,333,0.0,0.0,71,0.00,,,0.00,WeatherCatV2.10B1306,2017-03-23 06:41:00,
2017-03-23 02:46:00,32.4,24.1,30.42,NNW,333,0.0,0.0,71,0.00,,,0.00,WeatherCatV2.10B1306,2017-03-23 06:46:00,
2017-03-23 02:51:00,32.4,24.1,30.42,NNW,333,0.0,0.0,71,0.00,,,0.00,WeatherCatV2.10B1306,2017-03-23 06:51:00,
2017-03-23 02:56:00,32.5,23.8,30.42,NNW,333,0.0,0.0,70,0.00,,,0.00,WeatherCatV2.10B1306,2017-03-23 06:56:00,
2017-03-23 03:01:00,32.5,23.8,30.42,NNW,333,0.0,0.0,70,0.00,,,0.00,WeatherCatV2.10B1306,2017-03-23 07:01:00,
2017-03-23 03:06:00,32.5,23.8,30.42,NNW,333,0.0,0.0,70,0.00,,,0.00,WeatherCatV2.10B1306,2017-03-23 07:06:00,
2017-03-23 03:11:00,32.5,22.8,30.42,NNW,333,0.0,0.0,67,0.00,,,0.00,WeatherCatV2.10B1306,2017-03-23 07:11:00,
2017-03-23 03:16:00,32.5,23.1,30.43,NNW,333,0.0,0.0,68,0.00,,,0.00,WeatherCatV2.10B1306,2017-03-23 07:16:00,
2017-03-23 03:21:00,32.5,23.1,30.43,NNW,333,0.0,0.0,68,0.00,,,0.00,WeatherCatV2.10B1306,2017-03-23 07:21:00,
2017-03-23 03:26:00,32.5,23.1,30.43,NNW,333,0.0,0.0,68,0.00,,,0.00,WeatherCatV2.10B1306,2017-03-23 07:26:00,
2017-03-23 03:31:00,32.4,22.7,30.43,NNW,333,0.0,0.0,67,0.00,,,0.00,WeatherCatV2.10B1306,2017-03-23 07:31:00,
2017-03-23 03:36:00,32.2,22.1,30.43,NNW,333,0.0,0.0,66,0.00,,,0.00,WeatherCatV2.10B1306,2017-03-23 07:36:00,
2017-03-23 03:41:00,32.1,22.4,30.43,NNW,333,0.0,0.0,67,0.00,,,0.00,WeatherCatV2.10B1306,2017-03-23 07:41:00,
2017-03-23 03:46:00,31.9,22.6,30.43,NNW,333,0.0,0.0,68,0.00,,,0.00,WeatherCatV2.10B1306,2017-03-23 07:46:00,
2017-03-23 03:51:00,31.9,22.6,30.43,NNW,333,0.0,0.0,68,0.00,,,0.00,WeatherCatV2.10B1306,2017-03-23 07:51:00,
2017-03-23 03:56:00,31.8,22.5,30.43,NNW,333,0.0,0.0,68,0.00,,,0.00,WeatherCatV2.10B1306,2017-03-23 07:56:00,
2017-03-23 04:01:00,31.6,22.3,30.43,NNW,333,0.0,0.0,68,0.00,,,0.00,WeatherCatV2.10B1306,2017-03-23 08:01:00,
2017-03-23 04:06:00,31.5,22.2,30.43,NNW,333,0.0,0.0,68,0.00,,,0.00,WeatherCatV2.10B1306,2017-03-23 08:06:00,
2017-03-23 04:11:00,31.3,22.0,30.43,NNW,333,0.0,0.0,68,0.00,,,0.00,WeatherCatV2.10B1306,2017-03-23 08:11:00,
2017-03-23 04:16:00,31.2,22.2,30.43,NNW,333,0.0,0.0,69,0.00,,,0.00,WeatherCatV2.10B1306,2017-03-23 08:16:00,
2017-03-23 04:21:00,31.0,21.7,30.43,NNW,333,0.0,0.0,68,0.00,,,0.00,WeatherCatV2.10B1306,2017-03-23 08:21:00,
2017-03-23 04:31:00,30.9,22.0,30.43,NNW,333,0.0,0.0,69,0.00,,,0.00,WeatherCatV2.10B1306,2017-03-23 08:31:00,
2017-03-23 04:36:00,30.7,21.8,30.43,NNW,333,0.0,0.0,69,0.00,,,0.00,WeatherCatV2.10B1306,2017-03-23 08:36:00,
2017-03-23 04:41:00,30.6,21.3,30.43,NNW,333,0.0,0.0,68,0.00,,,0.00,WeatherCatV2.10B1306,2017-03-23 08:41:00,
2017-03-23 04:46:00,30.4,21.1,30.44,NNW,333,0.0,0.0,68,0.00,,,0.00,WeatherCatV2.10B1306,2017-03-23 08:46:00,
2017-03-23 04:51:00,30.3,21.0,30.44,NNW,333,0.0,0.0,68,0.00,,,0.00,WeatherCatV2.10B1306,2017-03-23 08:51:00,
2017-03-23 04:56:00,30.3,21.4,30.44,NNW,333,0.0,0.0,69,0.00,,,0.00,WeatherCatV2.10B1306,2017-03-23 08:56:00,
2017-03-23 05:01:00,30.1,21.2,30.44,NNW,333,0.0,0.0,69,0.00,,,0.00,WeatherCatV2.10B1306,2017-03-23 09:01:00,
2017-03-23 05:06:00,30.1,21.5,30.44,NNW,333,0.0,0.0,70,0.00,,,0.00,WeatherCatV2.10B1306,2017-03-23 09:06:00,
2017-03-23 05:11:00,30.1,21.9,30.44,NNW,333,0.0,0.0,71,0.00,,,0.00,WeatherCatV2.10B1306,2017-03-23 09:11:00,
2017-03-23 05:16:00,30.0,21.8,30.44,NNW,333,0.0,0.0,71,0.00,,,0.00,WeatherCatV2.10B1306,2017-03-23 09:16:00,
2017-03-23 05:21:00,30.0,21.8,30.44,NNW,333,0.0,0.0,71,0.00,,,0.00,WeatherCatV2.10B1306,2017-03-23 09:21:00,
2017-03-23 05:26:00,29.8,21.2,30.44,NNW,333,0.0,0.0,70,0.00,,,0.00,WeatherCatV2.10B1306,2017-03-23 09:26:00,
2017-03-23 05:31:00,29.8,21.2,30.46,NNW,333,0.0,0.0,70,0.00,,,0.00,WeatherCatV2.10B1306,2017-03-23 09:31:00,
2017-03-23 05:36:00,29.7,21.1,30.46,NNW,333,0.0,0.0,70,0.00,,,0.00,WeatherCatV2.10B1306,2017-03-23 09:36:00,
2017-03-23 05:41:00,29.5,20.9,30.46,NNW,333,0.0,0.0,70,0.00,,,0.00,WeatherCatV2.10B1306,2017-03-23 09:41:00,
2017-03-23 05:51:00,29.4,20.9,30.46,NNW,333,0.0,0.0,70,0.00,,,0.00,WeatherCatV2.10B1306,2017-03-23 09:51:00,
2017-03-23 05:56:00,29.4,20.9,30.46,NNW,333,0.0,0.0,70,0.00,,,0.00,WeatherCatV2.10B1306,2017-03-23 09:56:00,
2017-03-23 06:01:00,29.4,21.2,30.46,NNW,333,0.0,0.0,71,0.00,,,0.00,WeatherCatV2.10B1306,2017-03-23 10:01:00,
2017-03-23 06:06:00,29.3,21.1,30.46,NNW,333,0.0,0.0,71,0.00,,,0.00,WeatherCatV2.10B1306,2017-03-23 10:06:00,
2017-03-23 06:11:00,29.3,21.1,30.46,NNW,333,0.0,0.0,71,0.00,,,0.00,WeatherCatV2.10B1306,2017-03-23 10:11:00,
2017-03-23 06:16:00,29.3,21.4,30.47,NNW,333,0.0,0.0,72,0.00,,,0.00,WeatherCatV2.10B1306,2017-03-23 10:16:00,
2017-03-23 06:21:00,29.1,20.9,30.47,NNW,333,0.0,0.0,71,0.00,,,0.00,WeatherCatV2.10B1306,2017-03-23 10:21:00,
2017-03-23 06:26:00,29.1,20.9,30.47,NNW,333,0.0,0.0,71,0.00,,,0.00,WeatherCatV2.10B1306,2017-03-23 10:26:00,
2017-03-23 06:31:00,29.1,20.9,30.47,NNW,333,0.0,0.0,71,0.00,,,0.00,WeatherCatV2.10B1306,2017-03-23 10:31:00,
2017-03-23 06:36:00,29.0,21.1,30.47,NNW,333,0.0,0.0,72,0.00,,,0.00,WeatherCatV2.10B1306,2017-03-23 10:36:00,
2017-03-23 06:41:00,29.0,21.1,30.47,NNW,333,0.0,0.0,72,0.00,,,0.00,WeatherCatV2.10B1306,2017-03-23 10:41:00,
2017-03-23 06:46:00,28.8,20.9,30.48,NNW,333,0.0,0.0,72,0.00,,,0.00,WeatherCatV2.10B1306,2017-03-23 10:46:00,
2017-03-23 06:51:00,28.8,20.9,30.48,NNW,333,0.0,0.0,72,0.00,,,0.00,WeatherCatV2.10B1306,2017-03-23 10:51:00,
2017-03-23 06:56:00,28.8,20.9,30.48,NNW,333,0.0,0.0,72,0.00,,,0.00,WeatherCatV2.10B1306,2017-03-23 10:56:00,
2017-03-23 07:01:00,28.7,20.8,30.49,NNW,333,0.0,0.0,72,0.00,,,0.00,WeatherCatV2.10B1306,2017-03-23 11:01:00,
2017-03-23 07:06:00,28.7,20.8,30.49,NNW,333,0.0,0.0,72,0.00,,,0.00,WeatherCatV2.10B1306,2017-03-23 11:06:00,
2017-03-23 07:11:00,28.7,20.8,30.49,NNW,333,0.0,0.0,72,0.00,,,0.00,WeatherCatV2.10B1306,2017-03-23 11:11:00,
2017-03-23 07:16:00,28.7,21.2,30.50,NNW,333,0.0,0.0,73,0.00,,,0.00,WeatherCatV2.10B1306,2017-03-23 11:16:00,
2017-03-23 07:21:00,28.7,21.2,30.50,NNW,333,0.0,0.0,73,0.00,,,0.00,WeatherCatV2.10B1306,2017-03-23 11:21:00,
2017-03-23 07:26:00,28.7,21.2,30.50,NNW,333,0.0,0.0,73,0.00,,,0.00,WeatherCatV2.10B1306,2017-03-23 11:26:00,
2017-03-23 07:31:00,28.8,21.6,30.50,NNW,333,0.0,0.0,74,0.00,,,0.00,WeatherCatV2.10B1306,2017-03-23 11:31:00,
2017-03-23 07:36:00,28.8,21.6,30.50,NNW,333,0.0,0.0,74,0.00,,,0.00,WeatherCatV2.10B1306,2017-03-23 11:36:00,
2017-03-23 07:41:00,29.0,21.5,30.50,NNW,333,0.0,0.0,73,0.00,,,0.00,WeatherCatV2.10B1306,2017-03-23 11:41:00,
2017-03-23 07:46:00,29.0,21.5,30.51,NNW,333,0.0,0.0,73,0.00,,,0.00,WeatherCatV2.10B1306,2017-03-23 11:46:00,
2017-03-23 07:51:00,29.3,21.7,30.51,NNW,333,0.0,0.0,73,0.00,,,0.00,WeatherCatV2.10B1306,2017-03-23 11:51:00,
2017-03-23 07:56:00,29.5,21.9,30.51,NNW,333,0.0,0.0,73,0.00,,,0.00,WeatherCatV2.10B1306,2017-03-23 11:56:00,
2017-03-23 08:01:00,29.7,21.8,30.52,NNW,333,0.0,0.0,72,0.00,,,0.00,WeatherCatV2.10B1306,2017-03-23 12:01:00,
2017-03-23 08:06:00,30.1,22.2,30.52,NNW,333,0.0,0.0,72,0.00,,,0.00,WeatherCatV2.10B1306,2017-03-23 12:06:00,
2017-03-23 08:11:00,30.4,22.5,30.52,NNW,333,0.0,0.0,72,0.00,,,0.00,WeatherCatV2.10B1306,2017-03-23 12:11:00,
2017-03-23 08:16:00,30.7,22.8,30.53,NNW,333,0.0,0.0,72,0.00,,,0.00,WeatherCatV2.10B1306,2017-03-23 12:16:00,
2017-03-23 08:21:00,31.2,21.5,30.53,NNW,333,0.0,0.0,67,0.00,,,0.00,WeatherCatV2.10B1306,2017-03-23 12:21:00,
2017-03-23 08:26:00,31.9,21.1,30.53,NNW,333,0.0,0.0,64,0.00,,,0.00,WeatherCatV2.10B1306,2017-03-23 12:26:00,
2017-03-23 08:31:00,32.8,21.2,30.54,NNW,333,0.0,0.0,62,0.00,,,0.00,WeatherCatV2.10B1306,2017-03-23 12:31:00,
2017-03-23 08:36:00,33.8,21.0,30.54,NNW,333,0.0,0.0,59,0.00,,,0.00,WeatherCatV2.10B1306,2017-03-23 12:36:00,
2017-03-23 08:41:00,34.6,20.5,30.54,NNW,333,0.0,0.0,56,0.00,,,0.00,WeatherCatV2.10B1306,2017-03-23 12:41:00,
2017-03-23 08:46:00,35.2,19.4,30.54,NNW,333,0.0,0.0,52,0.00,,,0.00,WeatherCatV2.10B1306,2017-03-23 12:46:00,
2017-03-23 08:51:00,36.0,19.2,30.54,ESE,117,0.0,0.0,50,0.00,,,0.00,WeatherCatV2.10B1306,2017-03-23 12:51:00,
2017-03-23 08:56:00,36.6,18.3,30.54,ESE,118,0.0,0.0,47,0.00,,,0.00,WeatherCatV2.10B1306,2017-03-23 12:56:00,
2017-03-23 09:01:00,37.2,19.3,30.55,East,98,0.0,0.0,48,0.00,,,0.00,WeatherCatV2.10B1306,2017-03-23 13:01:00,
2017-03-23 09:06:00,37.8,19.4,30.55,ESE,106,0.0,0.0,47,0.00,,,0.00,WeatherCatV2.10B1306,2017-03-23 13:06:00,
2017-03-23 09:11:00,38.3,19.4,30.55,East,82,0.0,0.0,46,0.00,,,0.00,WeatherCatV2.10B1306,2017-03-23 13:11:00,
2017-03-23 09:16:00,38.6,18.1,30.55,ESE,110,0.0,0.0,43,0.00,,,0.00,WeatherCatV2.10B1306,2017-03-23 13:16:00,
2017-03-23 09:21:00,38.9,19.9,30.55,WNW,291,0.0,0.0,46,0.00,,,0.00,WeatherCatV2.10B1306,2017-03-23 13:21:00,
2017-03-23 09:26:00,39.2,20.7,30.55,ESE,116,0.0,0.0,47,0.00,,,0.00,WeatherCatV2.10B1306,2017-03-23 13:26:00,
2017-03-23 09:31:00,39.5,19.4,30.55,ESE,116,0.0,0.0,44,0.00,,,0.00,WeatherCatV2.10B1306,2017-03-23 13:31:00,
2017-03-23 09:41:00,40.3,20.7,30.55,SE,128,0.0,0.0,45,0.00,,,0.00,WeatherCatV2.10B1306,2017-03-23 13:41:00,
2017-03-23 09:46:00,40.8,21.6,30.55,ESE,115,0.0,0.0,46,0.00,,,0.00,WeatherCatV2.10B1306,2017-03-23 13:46:00,
2017-03-23 09:51:00,40.9,20.7,30.55,East,101,0.0,0.0,44,0.00,,,0.00,WeatherCatV2.10B1306,2017-03-23 13:51:00,
2017-03-23 09:56:00,41.3,22.1,30.55,East,86,0.0,0.0,46,0.00,,,0.00,WeatherCatV2.10B1306,2017-03-23 13:56:00,
2017-03-23 10:01:00,41.8,21.0,30.56,ESE,107,0.0,0.0,43,0.00,,,0.00,WeatherCatV2.10B1306,2017-03-23 14:01:00,
2017-03-23 10:06:00,42.1,20.7,30.56,ENE,77,0.0,0.0,42,0.00,,,0.00,WeatherCatV2.10B1306,2017-03-23 14:06:00,
2017-03-23 10:11:00,42.3,21.4,30.56,SE,141,0.0,0.0,43,0.00,,,0.00,WeatherCatV2.10B1306,2017-03-23 14:11:00,
2017-03-23 10:16:00,42.8,21.9,30.57,SSW,201,0.0,0.0,43,0.00,,,0.00,WeatherCatV2.10B1306,2017-03-23 14:16:00,
2017-03-23 10:21:00,43.3,21.8,30.57,NE,38,0.0,0.0,42,0.00,,,0.00,WeatherCatV2.10B1306,2017-03-23 14:21:00,
2017-03-23 10:26:00,43.9,22.9,30.57,South,182,0.0,0.0,43,0.00,,,0.00,WeatherCatV2.10B1306,2017-03-23 14:26:00,
2017-03-23 10:31:00,44.2,22.0,30.57,ESE,109,0.0,0.0,41,0.00,,,0.00,WeatherCatV2.10B1306,2017-03-23 14:31:00,
2017-03-23 10:36:00,44.2,22.0,30.57,South,171,0.0,0.0,41,0.00,,,0.00,WeatherCatV2.10B1306,2017-03-23 14:36:00,
2017-03-23 10:41:00,44.2,22.0,30.57,SE,130,0.0,0.0,41,0.00,,,0.00,WeatherCatV2.10B1306,2017-03-23 14:41:00,
2017-03-23 10:46:00,44.3,20.9,30.57,SSE,161,0.0,0.0,39,0.00,,,0.00,WeatherCatV2.10B1306,2017-03-23 14:46:00,
2017-03-23 10:51:00,44.6,21.2,30.57,ESE,123,0.0,0.0,39,0.00,,,0.00,WeatherCatV2.10B1306,2017-03-23 14:51:00,
2017-03-23 10:56:00,44.8,21.4,30.57,SSW,211,0.0,0.0,39,0.00,,,0.00,WeatherCatV2.10B1306,2017-03-23 14:56:00,
2017-03-23 11:01:00,45.1,20.4,30.57,NNW,328,0.0,0.0,37,0.00,,,0.00,WeatherCatV2.10B1306,2017-03-23 15:01:00,
2017-03-23 11:06:00,45.2,19.9,30.57,ESE,108,0.0,0.0,36,0.00,,,0.00,WeatherCatV2.10B1306,2017-03-23 15:06:00,
2017-03-23 11:11:00,45.2,19.2,30.57,SE,136,0.0,0.0,35,0.00,,,0.00,WeatherCatV2.10B1306,2017-03-23 15:11:00,
2017-03-23 11:16:00,45.4,20.7,30.57,WNW,294,0.0,0.0,37,0.00,,,0.00,WeatherCatV2.10B1306,2017-03-23 15:16:00,
2017-03-23 11:21:00,45.4,18.7,30.57,East,101,0.0,0.0,34,0.00,,,0.00,WeatherCatV2.10B1306,2017-03-23 15:21:00,
2017-03-23 11:26:00,45.7,19.6,30.57,NNW,333,0.0,0.0,35,0.00,,,0.00,WeatherCatV2.10B1306,2017-03-23 15:26:00,
2017-03-23 11:31:00,45.8,18.4,30.57,East,92,0.0,0.0,33,0.00,,,0.00,WeatherCatV2.10B1306,2017-03-23 15:31:00,
2017-03-23 11:36:00,46.4,18.2,30.57,SE,128,0.0,0.0,32,0.00,,,0.00,WeatherCatV2.10B1306,2017-03-23 15:36:00,
2017-03-23 11:41:00,47.0,19.4,30.57,SSE,157,0.0,0.0,33,0.00,,,0.00,WeatherCatV2.10B1306,2017-03-23 15:41:00,
2017-03-23 11:46:00,47.1,16.5,30.57,SW,236,0.0,0.0,29,0.00,,,0.00,WeatherCatV2.10B1306,2017-03-23 15:46:00,
2017-03-23 11:51:00,46.5,16.0,30.57,SE,133,0.0,0.0,29,0.00,,,0.00,WeatherCatV2.10B1306,2017-03-23 15:51:00,
2017-03-23 11:56:00,46.7,17.7,30.57,ESE,119,0.0,0.0,31,0.00,,,0.00,WeatherCatV2.10B1306,2017-03-23 15:56:00,
2017-03-23 12:01:00,47.9,19.5,30.56,ESE,103,0.0,0.0,32,0.00,,,0.00,WeatherCatV2.10B1306,2017-03-23 16:01:00,
2017-03-23 12:06:00,48.9,17.2,30.56,ESE,116,0.0,0.0,28,0.00,,,0.00,WeatherCatV2.10B1306,2017-03-23 16:06:00,
2017-03-23 12:11:00,48.2,15.8,30.56,ESE,119,0.0,0.0,27,0.00,,,0.00,WeatherCatV2.10B1306,2017-03-23 16:11:00,
2017-03-23 12:16:00,48.8,17.2,30.56,SE,139,0.0,0.0,28,0.00,,,0.00,WeatherCatV2.10B1306,2017-03-23 16:16:00,
2017-03-23 12:21:00,49.6,17.0,30.56,ESE,115,0.0,0.0,27,0.00,,,0.00,WeatherCatV2.10B1306,2017-03-23 16:21:00,
2017-03-23 12:23:00,49.9,18.1,30.56,SSE,152,0.0,0.0,28,0.00,,,0.00,WeatherCatV2.10B1306,2017-03-23 16:23:00,
2017-03-23 12:28:00,50.2,17.5,30.56,ESE,111,0.0,0.0,27,0.00,,,0.00,WeatherCatV2.10B1306,2017-03-23 16:28:00,
2017-03-23 12:33:00,50.1,17.4,30.55,WNW,286,0.0,0.0,27,0.00,,,0.00,WeatherCatV2.10B1306,2017-03-23 16:33:00,
2017-03-23 12:38:00,50.8,18.0,30.55,SE,142,0.0,0.0,27,0.00,,,0.00,WeatherCatV2.10B1306,2017-03-23 16:38:00,
2017-03-23 12:43:00,50.8,16.3,30.55,ESE,113,0.0,0.0,25,0.00,,,0.00,WeatherCatV2.10B1306,2017-03-23 16:43:00,
2017-03-23 12:48:00,51.0,16.4,30.55,SE,134,0.0,0.0,25,0.00,,,0.00,WeatherCatV2.10B1306,2017-03-23 16:48:00,
2017-03-23 12:53:00,49.9,16.4,30.55,East,101,0.0,0.0,26,0.00,,,0.00,WeatherCatV2.10B1306,2017-03-23 16:53:00,
2017-03-23 12:58:00,50.8,15.3,30.55,WNW,302,0.0,0.0,24,0.00,,,0.00,WeatherCatV2.10B1306,2017-03-23 16:58:00,
2017-03-23 13:03:00,49.2,15.8,30.54,NW,309,0.0,0.0,26,0.00,,,0.00,WeatherCatV2.10B1306,2017-03-23 17:03:00,
2017-03-23 13:08:00,50.7,18.0,30.54,SE,128,0.0,0.0,27,0.00,,,0.00,WeatherCatV2.10B1306,2017-03-23 17:08:00,
2017-03-23 13:13:00,50.8,18.0,30.54,ESE,110,0.0,0.0,27,0.00,,,0.00,WeatherCatV2.10B1306,2017-03-23 17:13:00,
2017-03-23 13:18:00,51.7,17.0,30.54,SSE,163,0.0,0.0,25,0.00,,,0.00,WeatherCatV2.10B1306,2017-03-23 17:18:00,
2017-03-23 13:23:00,52.2,17.5,30.54,ESE,118,0.0,0.0,25,0.00,,,0.00,WeatherCatV2.10B1306,2017-03-23 17:23:00,
2017-03-23 13:28:00,52.2,16.5,30.54,SE,130,0.0,0.0,24,0.00,,,0.00,WeatherCatV2.10B1306,2017-03-23 17:28:00,
2017-03-23 13:33:00,52.5,18.6,30.54,SE,136,0.0,0.0,26,0.00,,,0.00,WeatherCatV2.10B1306,2017-03-23 17:33:00,
2017-03-23 13:38:00,52.0,18.2,30.54,West,279,0.0,0.0,26,0.00,,,0.00,WeatherCatV2.10B1306,2017-03-23 17:38:00,
2017-03-23 13:43:00,52.0,16.3,30.54,WNW,295,0.0,0.0,24,0.00,,,0.00,WeatherCatV2.10B1306,2017-03-23 17:43:00,
2017-03-23 13:48:00,52.0,17.3,30.53,ESE,103,0.0,0.0,25,0.00,,,0.00,WeatherCatV2.10B1306,2017-03-23 17:48:00,
2017-03-23 13:53:00,51.9,17.2,30.53,ESE,103,0.0,0.0,25,0.00,,,0.00,WeatherCatV2.10B1306,2017-03-23 17:53:00,
2017-03-23 13:58:00,52.0,16.3,30.53,ESE,117,0.0,0.0,24,0.00,,,0.00,WeatherCatV2.10B1306,2017-03-23 17:58:00,
2017-03-23 14:03:00,52.0,17.3,30.52,West,279,0.0,0.0,25,0.00,,,0.00,WeatherCatV2.10B1306,2017-03-23 18:03:00,
2017-03-23 14:08:00,52.0,15.4,30.52,WSW,251,0.0,0.0,23,0.00,,,0.00,WeatherCatV2.10B1306,2017-03-23 18:08:00,
2017-03-23 14:10:00,51.9,16.3,30.52,West,277,0.0,0.0,24,0.00,,,0.00,WeatherCatV2.10B1306,2017-03-23 18:10:00,
2017-03-23 14:15:00,51.6,16.0,30.51,ESE,111,0.0,0.0,24,0.00,,,0.00,WeatherCatV2.10B1306,2017-03-23 18:15:00,
2017-03-23 14:20:00,51.7,17.0,30.51,ESE,115,0.0,0.0,25,0.00,,,0.00,WeatherCatV2.10B1306,2017-03-23 18:20:00,
2017-03-23 14:25:00,52.2,18.4,30.51,ESE,123,0.0,0.0,26,0.00,,,0.00,WeatherCatV2.10B1306,2017-03-23 18:25:00,
2017-03-23 14:30:00,52.8,16.0,30.51,SSE,158,0.0,0.0,23,0.00,,,0.00,WeatherCatV2.10B1306,2017-03-23 18:30:00,
2017-03-23 14:35:00,52.6,16.9,30.51,WNW,297,0.0,0.0,24,0.00,,,0.00,WeatherCatV2.10B1306,2017-03-23 18:35:00,
2017-03-23 14:40:00,52.9,17.1,30.51,SE,129,0.0,0.0,24,0.00,,,0.00,WeatherCatV2.10B1306,2017-03-23 18:40:00,
2017-03-23 14:45:00,53.2,17.4,30.51,West,272,0.0,0.0,24,0.00,,,0.00,WeatherCatV2.10B1306,2017-03-23 18:45:00,
2017-03-23 14:50:00,54.1,17.1,30.51,ENE,68,0.0,0.0,23,0.00,,,0.00,WeatherCatV2.10B1306,2017-03-23 18:50:00,
2017-03-23 14:55:00,55.6,17.4,30.51,WNW,296,0.0,0.0,22,0.00,,,0.00,WeatherCatV2.10B1306,2017-03-23 18:55:00,
2017-03-23 15:00:00,55.6,16.3,30.51,ESE,107,0.0,0.0,21,0.00,,,0.00,WeatherCatV2.10B1306,2017-03-23 19:00:00,
2017-03-23 15:02:00,54.8,16.7,30.51,ESE,107,0.0,0.0,22,0.00,,,0.00,WeatherCatV2.10B1306,2017-03-23 19:02:00,
2017-03-23 15:07:00,53.9,17.0,30.51,SE,129,0.0,0.0,23,0.00,,,0.00,WeatherCatV2.10B1306,2017-03-23 19:07:00,
2017-03-23 15:12:00,54.2,17.2,30.51,East,97,0.0,0.0,23,0.00,,,0.00,WeatherCatV2.10B1306,2017-03-23 19:12:00,
2017-03-23 15:17:00,55.6,18.4,30.50,East,101,0.0,0.0,23,0.00,,,0.00,WeatherCatV2.10B1306,2017-03-23 19:17:00,
2017-03-23 15:22:00,55.3,17.1,30.50,SE,132,0.0,0.0,22,0.00,,,0.00,WeatherCatV2.10B1306,2017-03-23 19:22:00,
2017-03-23 15:27:00,55.9,18.6,30.50,SE,134,0.0,0.0,23,0.00,,,0.00,WeatherCatV2.10B1306,2017-03-23 19:27:00,
2017-03-23 15:32:00,56.9,18.5,30.50,SE,146,0.0,0.0,22,0.00,,,0.00,WeatherCatV2.10B1306,2017-03-23 19:32:00,
2017-03-23 15:37:00,55.7,17.5,30.50,West,262,0.0,0.0,22,0.00,,,0.00,WeatherCatV2.10B1306,2017-03-23 19:37:00,
2017-03-23 15:42:00,54.8,17.7,30.50,West,261,0.0,0.0,23,0.00,,,0.00,WeatherCatV2.10B1306,2017-03-23 19:42:00,
2017-03-23 15:47:00,55.1,17.0,30.49,South,188,0.0,0.0,22,0.00,,,0.00,WeatherCatV2.10B1306,2017-03-23 19:47:00,
2017-03-23 15:52:00,55.6,17.4,30.49,SE,135,0.0,0.0,22,0.00,,,0.00,WeatherCatV2.10B1306,2017-03-23 19:52:00,
2017-03-23 15:57:00,55.7,18.5,30.49,SW,234,0.0,0.0,23,0.00,,,0.00,WeatherCatV2.10B1306,2017-03-23 19:57:00,
2017-03-23 15:59:00,55.7,17.5,30.49,SW,234,0.0,0.0,22,0.00,,,0.00,WeatherCatV2.10B1306,2017-03-23 19:59:00,
2017-03-23 16:09:00,54.4,17.4,30.49,ESE,117,0.0,0.0,23,0.00,,,0.00,WeatherCatV2.10B1306,2017-03-23 20:09:00,
2017-03-23 16:14:00,54.2,17.2,30.49,ESE,122,0.0,0.0,23,0.00,,,0.00,WeatherCatV2.10B1306,2017-03-23 20:14:00,
2017-03-23 16:19:00,53.6,15.7,30.49,ESE,117,0.0,0.0,22,0.00,,,0.00,WeatherCatV2.10B1306,2017-03-23 20:19:00,
2017-03-23 16:24:00,53.9,18.0,30.49,ESE,122,0.0,0.0,24,0.00,,,0.00,WeatherCatV2.10B1306,2017-03-23 20:24:00,